Location: Estes Par
(40.3770°N, 10.0000°W)
Time: 09:15:37
(UTC-07:00)

Amateur Radio Satellites - All Passes

Search period start: 21 January 2018 08:45
Search period end: 22 January 2018 08:45
Location: Estes Par, 40.3770°N, 10.0000°W

Satellite Date Start Highest point End Downlink Frequencies (MHz)
Time Altitude Azimuth
M-CUBED/EXP-1 PRIME 21 Jan 09:15:50 09:20:09 65° 69° (ENE) 09:24:11 437.505
DOVE 4 21 Jan 09:28:54 09:33:08 62° 74° (ENE) 09:37:15 437.250
NO-84 21 Jan 09:33:48 09:36:18 22° 130° (SE) 09:38:41 435.350 FM
CUTE-I 21 Jan 09:36:03 09:38:12 12° 59° (ENE) 09:40:20 437.470
ITAMSAT 1 21 Jan 09:36:34 09:40:58 28° 264° (W) 09:45:23 435.822/435.867
ITUPSAT 1 21 Jan 09:40:09 09:44:55 64° 287° (WNW) 09:49:40 437.325
LilacSat-2 21 Jan 09:54:32 09:56:57 16° 67° (ENE) 09:59:21 437.200
XW-2C 21 Jan 09:56:16 09:58:33 15° 67° (ENE) 10:00:50 145.795 - 145.815
KKS-1 21 Jan 09:57:33 09:59:22 12° 91° (E) 10:01:12 437.445
HO-68 21 Jan 10:02:45 10:07:15 18° 55° (NE) 10:11:43 435.675
MOZHAYETS 4 21 Jan 10:07:59 10:11:08 18° 295° (WNW) 10:14:15
CUBESAT XI-V 21 Jan 10:11:07 10:15:40 62° 286° (WNW) 10:20:10 437.345
BEESAT 21 Jan 10:20:10 10:24:06 26° 293° (WNW) 10:28:01 436.000
KAITUO 1B 21 Jan 10:28:32 10:31:39 25° 70° (ENE) 10:34:45 145.475/437.950
AO-7 21 Jan 10:30:16 10:33:22 12° 272° (W) 10:36:29 .
BEESAT 3 21 Jan 10:30:29 10:32:10 12° 41° (NE) 10:33:50 437.485
XW-2F 21 Jan 10:30:44 10:34:14 35° 72° (ENE) 10:37:42 145.980 - 146.000
RS-15 21 Jan 10:34:41 10:46:29 78° 56° (NE) 10:57:36 29.354- 29.394
NUDT-PHONESAT 21 Jan 10:38:20 10:41:37 30° 72° (ENE) 10:44:56 437.300
CUTE 1.7 + AOD 2 21 Jan 10:39:59 10:42:28 15° 65° (ENE) 10:44:57 437.475
XW-2D 21 Jan 10:40:37 10:44:20 54° 75° (ENE) 10:48:04 145.860 - 145.880
M-CUBED/EXP-1 PRIME 21 Jan 10:53:33 10:54:44 11° 263° (W) 10:55:54 437.505
CUBEBUG 2 21 Jan 10:57:14 10:59:55 16° 64° (ENE) 11:02:39 437.445
XW-2B 21 Jan 10:58:08 11:01:58 87° 72° (ENE) 11:05:47 145.730 - 145.750
UWE-3 21 Jan 11:03:40 11:04:21 10° 61° (ENE) 11:05:02 435.000/436.395/437.385
NO-84 21 Jan 11:10:40 11:13:22 28° 324° (NW) 11:15:56 435.350 FM
CUTE-I 21 Jan 11:12:09 11:17:28 88° 256° (WSW) 11:22:48 437.470
PCSat 21 Jan 11:16:43 11:21:00 23° 47° (NE) 11:25:17 145.827
BEESAT 2 21 Jan 11:19:55 11:21:21 12° 40° (NE) 11:22:47 435.950
LilacSat-2 21 Jan 11:27:22 11:30:55 35° 262° (W) 11:34:28 437.200
XW-2C 21 Jan 11:28:52 11:32:24 36° 262° (W) 11:35:57 145.795 - 145.815
KKS-1 21 Jan 11:31:54 11:36:16 59° 287° (WNW) 11:40:39 437.445
AAUSAT CUBESAT 2 21 Jan 11:41:25 11:44:11 18° 67° (ENE) 11:46:56 437.432
STARS 21 Jan 11:46:08 11:50:33 76° 102° (ESE) 11:54:58 437.465
HO-68 21 Jan 11:46:51 11:54:00 90° 230° (SW) 12:01:12 435.675
STRAND 1 21 Jan 11:46:52 11:47:48 10° 89° (E) 11:48:43 437.568
SEEDS 21 Jan 11:59:56 12:04:07 70° 75° (ENE) 12:08:18 437.485
KAITUO 1B 21 Jan 12:02:43 12:05:33 20° 265° (W) 12:08:24 145.475/437.950
Oscar 11 21 Jan 12:03:48 12:05:44 13° 63° (ENE) 12:07:40 .
XW-2F 21 Jan 12:06:15 12:08:26 15° 268° (W) 12:10:37 145.980 - 146.000
BEESAT 3 21 Jan 12:06:17 12:10:11 75° 241° (WSW) 12:14:00 437.485
NUDT-PHONESAT 21 Jan 12:13:05 12:15:30 16° 267° (W) 12:17:55 437.300
CUTE 1.7 + AOD 2 21 Jan 12:13:47 12:17:53 46° 261° (W) 12:22:00 437.475
XW-2A 21 Jan 12:23:05 12:26:16 39° 73° (ENE) 12:29:29 145.665 - 145.685
CUBEBUG 2 21 Jan 12:31:52 12:36:04 49° 261° (W) 12:40:27 437.445
UWE-3 21 Jan 12:35:39 12:40:03 82° 259° (WSW) 12:44:37 435.000/436.395/437.385
RS-15 21 Jan 12:48:35 12:57:33 28° 258° (WSW) 13:06:15 29.354- 29.394
BEESAT 2 21 Jan 12:55:38 12:59:39 87° 239° (WSW) 13:03:34 435.950
ZACube-1 21 Jan 12:57:52 13:02:18 90° 215° (SW) 13:06:52 437.345
PCSat 21 Jan 12:59:28 13:04:45 56° 246° (WSW) 13:10:01 145.827
AO-73 21 Jan 13:04:15 13:08:41 88° 262° (W) 13:13:13 145.935
AO-85 21 Jan 13:06:32 13:10:35 25° 47° (NE) 13:14:48 145.980
AAUSAT CUBESAT 2 21 Jan 13:15:31 13:19:20 36° 262° (W) 13:23:10 437.432
FO-29 21 Jan 13:16:13 13:20:54 33° 97° (E) 13:25:38 435.910
nSIGHT-1 21 Jan 13:18:36 13:21:31 36° 137° (SE) 13:24:27 .
STRAND 1 21 Jan 13:22:25 13:27:34 85° 285° (WNW) 13:32:43 437.568
STARS 21 Jan 13:25:12 13:26:14 11° 299° (WNW) 13:27:17 437.465
ISS 21 Jan 13:34:24 13:37:23 35° 136° (SE) 13:40:23 437.550
Oscar 11 21 Jan 13:37:03 13:41:20 60° 259° (W) 13:45:39 .
HO-68 21 Jan 13:38:47 13:42:36 15° 271° (W) 13:46:25 435.675
DELFI C3 21 Jan 13:46:15 13:49:35 28° 70° (ENE) 13:52:56 145.870
XW-2A 21 Jan 13:58:26 13:59:08 10° 269° (W) 13:59:48 145.665 - 145.685
Max Valier Satellite 21 Jan 14:16:37 14:20:08 41° 73° (ENE) 14:23:39 145.860
EO-88 21 Jan 14:33:44 14:37:12 42° 73° (ENE) 14:40:40 145.990 - 145.960
AO-85 21 Jan 14:46:24 14:51:15 51° 243° (WSW) 14:56:21 145.980
nSIGHT-1 21 Jan 14:54:59 14:57:44 27° 334° (NNW) 15:00:29 .
TIGRISAT 21 Jan 14:59:14 15:03:37 38° 98° (E) 15:07:56 435.000
FO-29 21 Jan 15:01:38 15:05:55 27° 294° (WNW) 15:10:14 435.910
STRAND 1 21 Jan 15:04:39 15:05:55 11° 302° (WNW) 15:07:11 437.568
ISS 21 Jan 15:11:00 15:13:54 29° 334° (NNW) 15:16:47 437.550
UNISAT 6 21 Jan 15:14:32 15:19:12 61° 101° (E) 15:23:49 437.425
PRISM 21 Jan 15:15:41 15:16:31 11° 91° (E) 15:17:21 437.425
DELFI C3 21 Jan 15:21:25 15:24:18 20° 266° (W) 15:27:11 145.870
LO-87 21 Jan 15:50:38 15:54:00 45° 74° (ENE) 15:57:26 145.935 - 145.965
Max Valier Satellite 21 Jan 15:52:33 15:54:07 12° 269° (W) 15:55:41 145.860
ESTCUBE 1 21 Jan 15:57:38 16:01:57 47° 72° (ENE) 16:06:18 437.505/2401.250
NO-84 21 Jan 16:06:37 16:08:15 14° 29° (NNE) 16:09:54 435.350 FM
YUBILEINY 21 Jan 16:07:01 16:15:29 54° 90° (E) 16:23:57 435.215
EO-88 21 Jan 16:09:54 16:11:02 11° 269° (W) 16:12:10 145.990 - 145.960
EO-79 21 Jan 16:30:36 16:31:54 11° 90° (E) 16:33:12 145.935-145.965
nSIGHT-1 21 Jan 16:33:33 16:34:43 11° 353° (N) 16:35:53 .
TIGRISAT 21 Jan 16:36:25 16:40:01 22° 293° (WNW) 16:43:37 435.000
PRISM 21 Jan 16:48:06 16:52:06 57° 286° (WNW) 16:56:06 437.425
ISS 21 Jan 16:49:46 16:51:11 12° 353° (N) 16:52:36 437.550
UNISAT 6 21 Jan 16:52:47 16:55:22 15° 297° (WNW) 16:57:55 437.425
AIST 2D 21 Jan 16:57:30 17:00:58 86° 283° (WNW) 17:04:24 435.315
POLYITAN 1 21 Jan 17:03:47 17:07:28 27° 96° (E) 17:11:06 437.675
NANOSAT C BR1 21 Jan 17:18:26 17:22:21 35° 97° (E) 17:26:14 145.865
SPROUT 21 Jan 17:20:26 17:24:40 89° 71° (ENE) 17:28:56 437.525
VELOX 1 21 Jan 17:29:52 17:34:11 61° 74° (ENE) 17:38:30 145.980
QB50P2 21 Jan 17:33:08 17:37:25 68° 102° (ESE) 17:41:39 145.880/145.840
ESTCUBE 1 21 Jan 17:36:16 17:38:59 16° 268° (W) 17:41:44 437.505/2401.250
NO-84 21 Jan 17:42:49 17:45:37 57° 226° (SW) 17:48:33 435.350 FM
DX 1 21 Jan 17:44:58 17:47:50 18° 65° (ENE) 17:50:41 434.975-435.025
O/OREOS (USA 219) 21 Jan 17:48:29 17:52:58 75° 111° (ESE) 17:57:28 437.305
DUCHIFAT 1 21 Jan 18:01:24 18:05:39 86° 287° (WNW) 18:09:54 145.980
EO-79 21 Jan 18:03:48 18:08:01 60° 286° (WNW) 18:12:12 145.935-145.965
YUBILEINY 21 Jan 18:04:54 18:12:36 33° 290° (WNW) 18:20:20 435.215
nSIGHT-1 21 Jan 18:10:11 18:11:57 14° 14° (NNE) 18:13:43 .
ISS 21 Jan 18:26:50 18:28:44 14° 14° (NNE) 18:30:39 437.550
50 SAT 21 Jan 18:36:18 18:39:15 50° 75° (ENE) 18:42:16 437.505
AO-91 21 Jan 18:38:02 18:42:18 38° 99° (E) 18:46:55 145.960
POLYITAN 1 21 Jan 18:39:36 18:43:07 25° 292° (WNW) 18:46:36 437.675
Gurwin Techsat 1B 21 Jan 18:54:36 18:59:26 35° 97° (E) 19:04:14 435.225
NANOSAT C BR1 21 Jan 18:54:42 18:57:47 20° 293° (WNW) 19:00:52 145.865
BUGSAT 1 21 Jan 18:59:12 19:03:28 87° 283° (WNW) 19:07:42 437.445
Oscar 19 21 Jan 19:01:22 19:06:26 54° 100° (E) 19:11:27 437.125/150
UKube-1 21 Jan 19:05:27 19:09:43 80° 76° (ENE) 19:14:01 .
VELOX 1 21 Jan 19:09:32 19:10:59 11° 269° (W) 19:12:27 145.980
ITUPSAT 1 21 Jan 19:10:41 19:13:31 16° 62° (ENE) 19:16:22 437.325
QB50P2 21 Jan 19:11:19 19:12:36 11° 298° (WNW) 19:13:52 145.880/145.840
DX 1 21 Jan 19:19:35 19:23:40 41° 261° (W) 19:27:46 434.975-435.025
MOZHAYETS 4 21 Jan 19:31:00 19:35:18 41° 71° (ENE) 19:39:39
O/OREOS (USA 219) 21 Jan 19:31:07 19:32:56 12° 308° (NW) 19:34:44 437.305
CUBESAT XI-V 21 Jan 19:39:04 19:41:13 13° 62° (ENE) 19:43:22 437.345
nSIGHT-1 21 Jan 19:45:36 19:48:42 49° 33° (NNE) 19:51:47 .
BEESAT 21 Jan 19:47:55 19:52:15 37° 69° (ENE) 19:56:37 436.000
ISS 21 Jan 20:02:38 20:05:49 49° 32° (NNE) 20:09:00 437.550
ITAMSAT 1 21 Jan 20:12:10 20:13:56 12° 90° (E) 20:15:43 435.822/435.867
AO-91 21 Jan 20:15:02 20:18:32 23° 291° (WNW) 20:22:18 145.960
AO-7 21 Jan 20:33:23 20:41:09 40° 99° (E) 20:48:48 .
Gurwin Techsat 1B 21 Jan 20:34:42 20:39:14 29° 293° (WNW) 20:43:45 435.225
Oscar 19 21 Jan 20:41:45 20:45:18 19° 297° (WNW) 20:48:50 437.125/150
ITUPSAT 1 21 Jan 20:46:10 20:50:51 58° 259° (W) 20:55:34 437.325
KKS-1 21 Jan 20:55:51 20:57:26 12° 62° (ENE) 20:59:02 437.445
MOZHAYETS 4 21 Jan 21:09:18 21:12:36 19° 267° (W) 21:15:55
CUBESAT XI-V 21 Jan 21:13:20 21:17:59 68° 258° (WSW) 21:22:40 437.345
nSIGHT-1 21 Jan 21:22:29 21:24:35 16° 229° (SW) 21:26:41 .
BEESAT 21 Jan 21:26:23 21:30:05 23° 265° (W) 21:33:50 436.000
DOVE 4 21 Jan 21:28:14 21:31:09 17° 94° (E) 21:34:07 437.250
FALCONSAT 3 21 Jan 21:31:23 21:34:26 25° 165° (SSE) 21:37:30 435.103
ISS 21 Jan 21:39:47 21:42:02 17° 228° (SW) 21:44:18 437.550
ITAMSAT 1 21 Jan 21:48:45 21:53:58 80° 286° (WNW) 21:59:10 435.822/435.867
SO-50 21 Jan 22:14:57 22:19:06 41° 116° (ESE) 22:23:19 436.795
AO-7 21 Jan 22:26:05 22:33:55 47° 297° (WNW) 22:41:43 .
KKS-1 21 Jan 22:29:01 22:33:23 69° 258° (WSW) 22:37:48 437.445
M-CUBED/EXP-1 PRIME 21 Jan 22:29:01 22:32:10 40° 104° (ESE) 22:35:14 437.505
STARS 21 Jan 22:41:51 22:46:08 62° 74° (ENE) 22:50:27 437.465
LilacSat-2 21 Jan 23:01:03 23:04:05 23° 95° (E) 23:07:06 437.200
STRAND 1 21 Jan 23:01:10 23:04:13 16° 62° (ENE) 23:07:17 437.568
XW-2C 21 Jan 23:01:56 23:04:51 21° 95° (E) 23:07:45 145.795 - 145.815
DOVE 4 21 Jan 23:04:50 23:08:57 42° 287° (WNW) 23:13:17 437.250
FALCONSAT 3 21 Jan 23:09:42 23:13:07 38° 180° (S) 23:16:32 435.103
HO-68 21 Jan 23:16:51 23:21:17 17° 90° (E) 23:25:41 435.675
FO-29 21 Jan 23:29:17 23:33:24 18° 62° (ENE) 23:37:15 435.910
CUTE-I 21 Jan 23:29:48 23:34:43 38° 98° (E) 23:39:38 437.470
ITAMSAT 1 21 Jan 23:31:45 23:32:32 10° 303° (WNW) 23:33:20 435.822/435.867
KAITUO 1B 21 Jan 23:33:02 23:36:26 35° 98° (E) 23:39:49 145.475/437.950
XW-2F 21 Jan 23:36:35 23:40:15 54° 101° (E) 23:43:52 145.980 - 146.000
NUDT-PHONESAT 21 Jan 23:41:50 23:45:20 43° 99° (E) 23:48:48 437.300
SEEDS 21 Jan 23:46:09 23:47:36 12° 90° (E) 23:49:03 437.485
XW-2D 21 Jan 23:47:14 23:51:00 88° 105° (ESE) 23:54:42 145.860 - 145.880
SO-50 21 Jan 23:56:05 23:59:42 24° 314° (NW) 00:03:23 436.795
CUTE 1.7 + AOD 2 21 Jan 23:59:07 00:02:47 29° 96° (E) 00:06:25 437.475
XW-2B 22 Jan 00:04:58 00:08:39 57° 284° (WNW) 00:12:17 145.730 - 145.750
M-CUBED/EXP-1 PRIME 22 Jan 00:05:28 00:06:10 11° 301° (WNW) 00:06:52 437.505
STARS 22 Jan 00:21:35 00:22:51 11° 270° (W) 00:24:07 437.465
CUBEBUG 2 22 Jan 00:22:45 00:27:10 37° 97° (E) 00:31:31 437.445
AO-7 22 Jan 00:23:48 00:24:34 10° 319° (NW) 00:25:19 .
UWE-3 22 Jan 00:26:12 00:29:51 22° 93° (E) 00:33:27 435.000/436.395/437.385
LilacSat-2 22 Jan 00:35:17 00:38:15 22° 291° (WNW) 00:41:11 437.200
XW-2C 22 Jan 00:35:56 00:38:56 23° 290° (WNW) 00:41:56 145.795 - 145.815
STRAND 1 22 Jan 00:37:50 00:42:51 63° 258° (WSW) 00:47:55 437.568
ZACube-1 22 Jan 00:47:31 00:50:44 19° 92° (E) 00:53:55 437.345
FALCONSAT 3 22 Jan 00:48:42 00:51:47 26° 195° (SSW) 00:54:52 435.103
AO-73 22 Jan 00:53:31 00:56:45 19° 92° (E) 00:59:56 145.935
RS-15 22 Jan 00:55:41 01:07:26 55° 111° (ESE) 01:19:04 29.354- 29.394
AAUSAT CUBESAT 2 22 Jan 00:57:38 01:01:19 32° 97° (E) 01:04:59 437.432
HO-68 22 Jan 01:02:34 01:09:45 82° 288° (WNW) 01:16:54 435.675
KAITUO 1B 22 Jan 01:08:03 01:10:05 14° 293° (WNW) 01:12:05 145.475/437.950
CUTE-I 22 Jan 01:10:10 01:14:34 27° 294° (WNW) 01:18:58 437.470
FO-29 22 Jan 01:11:04 01:17:57 78° 257° (WSW) 01:24:02 435.910
XW-2F 22 Jan 01:13:28 01:13:50 10° 296° (WNW) 01:14:12 145.980 - 146.000
XW-2A 22 Jan 01:17:11 01:20:22 42° 99° (E) 01:23:32 145.665 - 145.685
NUDT-PHONESAT 22 Jan 01:17:19 01:18:45 12° 295° (WNW) 01:20:10 437.300
SEEDS 22 Jan 01:19:32 01:23:35 54° 286° (WNW) 01:27:37 437.485
Oscar 11 22 Jan 01:25:03 01:28:38 25° 95° (E) 01:32:10 .
CUTE 1.7 + AOD 2 22 Jan 01:35:10 01:38:27 22° 292° (WNW) 01:41:42 437.475
BEESAT 3 22 Jan 01:55:44 01:58:31 19° 111° (ESE) 02:01:20 437.485
TIGRISAT 22 Jan 01:57:24 02:01:14 30° 69° (ENE) 02:05:11 435.000
PCSat 22 Jan 01:58:51 02:02:40 20° 106° (ESE) 02:06:29 145.827
CUBEBUG 2 22 Jan 01:59:48 02:03:31 23° 293° (WNW) 02:07:12 437.445
UWE-3 22 Jan 02:02:06 02:06:21 35° 289° (WNW) 02:10:32 435.000/436.395/437.385
UNISAT 6 22 Jan 02:12:34 02:16:48 48° 72° (ENE) 02:21:10 437.425
YUBILEINY 22 Jan 02:18:20 02:25:17 26° 67° (ENE) 02:32:10 435.215
O/OREOS (USA 219) 22 Jan 02:21:08 02:23:34 14° 54° (NE) 02:26:00 437.305
ZACube-1 22 Jan 02:22:54 02:27:09 39° 289° (WNW) 02:31:18 437.345
AO-73 22 Jan 02:28:54 02:33:06 38° 289° (WNW) 02:37:13 145.935
AAUSAT CUBESAT 2 22 Jan 02:33:35 02:36:32 20° 292° (WNW) 02:39:29 437.432
BEESAT 2 22 Jan 02:46:59 02:49:37 17° 111° (ESE) 02:52:18 435.950
HO-68 22 Jan 02:52:20 02:56:24 16° 306° (NW) 03:00:27 435.675
DELFI C3 22 Jan 02:57:07 03:00:55 48° 99° (E) 03:04:43 145.870
Oscar 11 22 Jan 03:01:03 03:04:42 27° 291° (WNW) 03:08:20 .
FO-29 22 Jan 03:02:17 03:03:37 11° 271° (W) 03:04:56 435.910
RS-15 22 Jan 03:08:13 03:20:06 51° 314° (NW) 03:31:49 29.354- 29.394
Max Valier Satellite 22 Jan 03:20:08 03:23:47 61° 100° (E) 03:27:24 145.860
AIST 2D 22 Jan 03:30:58 03:34:01 28° 72° (ENE) 03:37:03 435.315
BEESAT 3 22 Jan 03:32:05 03:35:46 37° 308° (NW) 03:39:30 437.485
TIGRISAT 22 Jan 03:34:18 03:37:54 24° 266° (W) 03:41:36 435.000
EO-88 22 Jan 03:35:44 03:39:19 60° 100° (E) 03:42:52 145.990 - 145.960
PRISM 22 Jan 03:36:12 03:40:15 89° 66° (ENE) 03:44:19 437.425
PCSat 22 Jan 03:40:18 03:45:36 55° 303° (WNW) 03:50:56 145.827
UNISAT 6 22 Jan 03:51:11 03:53:47 15° 269° (W) 03:56:26 437.425
POLYITAN 1 22 Jan 03:56:07 03:59:13 20° 67° (ENE) 04:02:19 437.675
O/OREOS (USA 219) 22 Jan 03:58:59 04:03:24 61° 251° (WSW) 04:07:47 437.305
NANOSAT C BR1 22 Jan 04:10:03 04:13:28 24° 68° (ENE) 04:16:54 145.865
YUBILEINY 22 Jan 04:14:11 04:22:49 68° 267° (W) 04:31:23 435.215
BEESAT 2 22 Jan 04:23:13 04:27:01 40° 307° (NW) 04:30:51 435.950
QB50P2 22 Jan 04:24:50 04:28:52 46° 73° (ENE) 04:32:56 145.880/145.840
DELFI C3 22 Jan 04:33:29 04:35:13 13° 295° (WNW) 04:36:57 145.870
LO-87 22 Jan 04:50:35 04:54:11 61° 101° (E) 04:57:45 145.935 - 145.965
DUCHIFAT 1 22 Jan 04:52:04 04:56:13 63° 74° (ENE) 05:00:24 145.980
EO-79 22 Jan 04:55:02 04:59:14 88° 259° (W) 05:03:30 145.935-145.965
AO-85 22 Jan 05:00:30 05:04:21 60° 118° (ESE) 05:08:29 145.980
AIST 2D 22 Jan 05:05:03 05:07:12 15° 267° (W) 05:09:20 435.315
SPROUT 22 Jan 05:07:33 05:10:07 15° 92° (E) 05:12:40 437.525
VELOX 1 22 Jan 05:22:20 05:23:50 12° 91° (E) 05:25:20 145.980
ESTCUBE 1 22 Jan 05:26:51 05:31:19 72° 285° (WNW) 05:35:44 437.505/2401.250
RS-15 22 Jan 05:27:26 05:36:28 23° 345° (NNW) 05:45:19 29.354- 29.394
PCSat 22 Jan 05:29:02 05:30:14 11° 324° (NW) 05:31:25 145.827
POLYITAN 1 22 Jan 05:30:53 05:34:44 34° 263° (W) 05:38:38 437.675
AO-91 22 Jan 05:36:24 05:38:58 21° 68° (ENE) 05:41:37 145.960
NANOSAT C BR1 22 Jan 05:45:28 05:49:02 27° 264° (W) 05:52:39 145.865
AO-7 22 Jan 05:45:52 05:48:42 12° 43° (NE) 05:51:32 .
BUGSAT 1 22 Jan 05:47:56 05:51:55 58° 74° (ENE) 05:55:59 437.445
QB50P2 22 Jan 06:02:34 06:04:53 14° 268° (W) 06:07:13 145.880/145.840
Gurwin Techsat 1B 22 Jan 06:15:02 06:20:11 54° 72° (ENE) 06:25:21 435.225
YUBILEINY 22 Jan 06:15:37 06:17:48 11° 287° (WNW) 06:19:59 435.215
Oscar 19 22 Jan 06:17:30 06:22:40 75° 75° (ENE) 06:27:53 437.125/150
DUCHIFAT 1 22 Jan 06:31:40 06:32:15 10° 270° (W) 06:32:50 145.980
SPROUT 22 Jan 06:42:06 06:46:11 44° 288° (WNW) 06:50:15 437.525
AO-85 22 Jan 06:42:41 06:45:13 16° 319° (NW) 06:47:51 145.980
SO-50 22 Jan 06:46:12 06:50:31 35° 50° (NE) 06:54:53 436.795
UKube-1 22 Jan 06:54:27 06:56:29 13° 92° (E) 06:58:31 .
VELOX 1 22 Jan 06:56:18 07:00:38 61° 286° (WNW) 07:04:57 145.980
DX 1 22 Jan 07:07:58 07:11:52 32° 97° (E) 07:15:45 434.975-435.025
AO-91 22 Jan 07:13:01 07:15:25 18° 266° (W) 07:17:53 145.960
50 SAT 22 Jan 07:22:24 07:25:20 39° 99° (E) 07:28:16 437.505
BUGSAT 1 22 Jan 07:26:50 07:27:38 10° 270° (W) 07:28:27 437.445
ITAMSAT 1 22 Jan 07:28:51 07:32:25 19° 63° (ENE) 07:35:59 435.822/435.867
AO-7 22 Jan 07:31:33 07:39:33 54° 65° (ENE) 07:47:37 .
RS-15 22 Jan 07:45:25 07:54:47 25° 21° (NNE) 08:03:46 29.354- 29.394
Gurwin Techsat 1B 22 Jan 07:56:49 08:00:26 18° 268° (W) 08:04:03 435.225
Oscar 19 22 Jan 08:00:24 08:02:31 12° 270° (W) 08:04:39 437.125/150
SO-50 22 Jan 08:26:51 08:30:52 28° 247° (WSW) 08:34:55 436.795
UKube-1 22 Jan 08:28:36 08:32:47 52° 287° (WNW) 08:36:57 .
DOVE 4 22 Jan 08:34:09 08:36:39 15° 66° (ENE) 08:39:06 437.250
